GEDCS FOOL-FOOG

Flight info

Callsign GEDCS
Flight time 1h 17m
Altitude 2000
Route LB PG
Aircraft BE58

Departure

Time 2026-04-13 18:20
Airport Libreville Leon M'ba International Airport (FOOL)

Arrival

Time 2026-04-13 19:38
Airport Port Gentil International Airport (FOOG)
Time Latitude Longitude Altitude Speed Heading
2026-04-13 18:09 0.45369 9.41247 38 ft 0 kts 66°
2026-04-13 18:16 0.45369 9.41248 38 ft 2 kts 69°
2026-04-13 18:17 0.45385 9.41296 39 ft 11 kts 73°
2026-04-13 18:17 0.45399 9.41342 39 ft 1 kts 71°
2026-04-13 18:17 0.45400 9.41345 39 ft 0 kts 72°
2026-04-13 18:17 0.45401 9.41348 39 ft 0 kts 72°
2026-04-13 18:18 0.45402 9.41351 39 ft 0 kts 72°
2026-04-13 18:18 0.45413 9.41380 39 ft 9 kts 65°
2026-04-13 18:18 0.45463 9.41421 39 ft 4 kts 334°
2026-04-13 18:18 0.45465 9.41420 39 ft 0 kts 333°
2026-04-13 18:19 0.45467 9.41419 39 ft 3 kts 334°
2026-04-13 18:19 0.45728 9.41289 39 ft 82 kts 334°
2026-04-13 18:19 0.46340 9.41027 219 ft 104 kts 336°
2026-04-13 18:20 0.47055 9.40755 524 ft 117 kts 335°
2026-04-13 18:20 0.47736 9.40361 919 ft 111 kts 311°
2026-04-13 18:20 0.47956 9.39661 1186 ft 113 kts 261°
2026-04-13 18:20 0.47586 9.38973 1469 ft 115 kts 225°
2026-04-13 18:21 0.46884 9.38600 1750 ft 118 kts 192°
2026-04-13 18:21 0.46053 9.38526 1995 ft 124 kts 184°
2026-04-13 18:21 0.45175 9.38356 2103 ft 133 kts 202°
2026-04-13 18:21 0.44260 9.38060 2143 ft 147 kts 188°
2026-04-13 18:22 0.43218 9.38213 2155 ft 160 kts 160°
2026-04-13 18:22 0.42278 9.38842 2160 ft 168 kts 143°
2026-04-13 18:22 0.41358 9.39593 2166 ft 173 kts 142°
2026-04-13 18:22 0.40423 9.40360 2174 ft 176 kts 142°
2026-04-13 18:23 0.39473 9.41138 2185 ft 179 kts 142°
2026-04-13 18:23 0.38511 9.41925 2195 ft 180 kts 142°
2026-04-13 18:23 0.37540 9.42718 2206 ft 181 kts 142°
2026-04-13 18:23 0.36566 9.43513 2218 ft 182 kts 142°
2026-04-13 18:24 0.35589 9.44310 2229 ft 182 kts 142°
2026-04-13 18:24 0.34604 9.45112 2241 ft 182 kts 142°
2026-04-13 18:24 0.33624 9.45909 2252 ft 182 kts 142°
2026-04-13 18:24 0.32645 9.46704 2264 ft 182 kts 142°
2026-04-13 18:25 0.31664 9.47500 2275 ft 182 kts 142°
2026-04-13 18:25 0.30683 9.48294 2287 ft 182 kts 142°
2026-04-13 18:25 0.29704 9.49086 2298 ft 182 kts 142°
2026-04-13 18:25 0.28723 9.49879 2310 ft 182 kts 142°
2026-04-13 18:26 0.27736 9.50676 2322 ft 182 kts 142°
2026-04-13 18:26 0.26757 9.51465 2333 ft 182 kts 142°
2026-04-13 18:26 0.25774 9.52257 2345 ft 182 kts 142°
2026-04-13 18:26 0.24792 9.53047 2356 ft 182 kts 142°
2026-04-13 18:27 0.23810 9.53836 2368 ft 182 kts 142°
2026-04-13 18:27 0.22829 9.54624 2379 ft 182 kts 142°
2026-04-13 18:27 0.21847 9.55412 2391 ft 182 kts 142°
2026-04-13 18:27 0.20857 9.56205 2403 ft 182 kts 142°
2026-04-13 18:28 0.19874 9.56991 2414 ft 182 kts 142°
2026-04-13 18:28 0.18891 9.57777 2426 ft 182 kts 142°
2026-04-13 18:28 0.17907 9.58562 2437 ft 182 kts 142°
2026-04-13 18:28 0.16922 9.59348 2449 ft 182 kts 142°
2026-04-13 18:29 0.15937 9.60132 2460 ft 182 kts 142°
2026-04-13 18:29 0.14951 9.60917 2464 ft 182 kts 142°
2026-04-13 18:29 0.13956 9.61709 2465 ft 183 kts 142°
2026-04-13 18:29 0.12965 9.62497 2465 ft 183 kts 142°
2026-04-13 18:30 0.11972 9.63288 2465 ft 183 kts 142°
2026-04-13 18:30 0.10978 9.64079 2465 ft 183 kts 142°
2026-04-13 18:30 0.09983 9.64871 2465 ft 183 kts 142°
2026-04-13 18:30 0.08989 9.65662 2464 ft 184 kts 142°
2026-04-13 18:31 0.07993 9.66455 2464 ft 184 kts 142°
2026-04-13 18:31 0.06989 9.67247 2463 ft 183 kts 144°
2026-04-13 18:31 0.05948 9.67975 2464 ft 183 kts 146°
2026-04-13 18:31 0.04904 9.68695 2464 ft 183 kts 146°
2026-04-13 18:32 0.03857 9.69414 2464 ft 183 kts 146°
2026-04-13 18:32 0.02811 9.70133 2464 ft 183 kts 146°
2026-04-13 18:32 0.01765 9.70852 2464 ft 183 kts 146°
2026-04-13 18:32 0.00719 9.71571 2464 ft 183 kts 146°
2026-04-13 18:33 -0.00334 9.72295 2464 ft 183 kts 146°
2026-04-13 18:33 -0.01380 9.73014 2464 ft 183 kts 146°
2026-04-13 18:33 -0.02428 9.73734 2464 ft 183 kts 146°
2026-04-13 18:34 -0.04520 9.75172 2464 ft 183 kts 146°
2026-04-13 18:34 -0.05565 9.75891 2464 ft 183 kts 146°
2026-04-13 18:34 -0.06610 9.76609 2464 ft 183 kts 146°
2026-04-13 18:34 -0.07661 9.77332 2464 ft 183 kts 146°
2026-04-13 18:35 -0.08705 9.78050 2464 ft 183 kts 146°
2026-04-13 18:35 -0.09748 9.78767 2464 ft 183 kts 146°
2026-04-13 18:35 -0.10794 9.79486 2464 ft 183 kts 146°
2026-04-13 18:35 -0.11838 9.80204 2464 ft 183 kts 146°
2026-04-13 18:36 -0.12882 9.80922 2464 ft 183 kts 146°
2026-04-13 18:36 -0.13926 9.81640 2464 ft 183 kts 146°
2026-04-13 18:36 -0.14978 9.82363 2464 ft 183 kts 146°
2026-04-13 18:36 -0.16021 9.83081 2464 ft 183 kts 146°
2026-04-13 18:37 -0.16714 9.83557 2464 ft 183 kts 146°
2026-04-13 18:37 -0.18107 9.84515 2464 ft 183 kts 146°
2026-04-13 18:37 -0.19151 9.85233 2464 ft 183 kts 146°
2026-04-13 18:37 -0.20195 9.85951 2464 ft 183 kts 146°
2026-04-13 18:38 -0.21245 9.86674 2464 ft 183 kts 146°
2026-04-13 18:38 -0.22296 9.87396 2464 ft 183 kts 146°
2026-04-13 18:38 -0.23341 9.88115 2464 ft 183 kts 146°
2026-04-13 18:38 -0.24386 9.88834 2464 ft 183 kts 146°
2026-04-13 18:39 -0.25429 9.89551 2464 ft 183 kts 146°
2026-04-13 18:39 -0.26472 9.90269 2464 ft 183 kts 146°
2026-04-13 18:39 -0.27517 9.90987 2464 ft 183 kts 146°
2026-04-13 18:39 -0.28560 9.91705 2464 ft 183 kts 146°
2026-04-13 18:40 -0.29612 9.92429 2464 ft 183 kts 146°
2026-04-13 18:40 -0.30657 9.93148 2464 ft 183 kts 146°
2026-04-13 18:40 -0.31702 9.93866 2464 ft 183 kts 146°
2026-04-13 18:40 -0.32744 9.94583 2464 ft 183 kts 146°
2026-04-13 18:41 -0.33789 9.95302 2464 ft 183 kts 146°
2026-04-13 18:41 -0.34832 9.96020 2464 ft 183 kts 146°
2026-04-13 18:41 -0.35877 9.96739 2464 ft 183 kts 146°
2026-04-13 18:41 -0.36928 9.97462 2464 ft 183 kts 146°
2026-04-13 18:42 -0.37972 9.98181 2464 ft 183 kts 146°
2026-04-13 18:42 -0.39017 9.98899 2464 ft 183 kts 146°
2026-04-13 18:42 -0.40059 9.99616 2463 ft 181 kts 146°
2026-04-13 18:42 -0.41077 10.00316 2460 ft 175 kts 146°
2026-04-13 18:43 -0.42062 10.00996 2461 ft 171 kts 146°
2026-04-13 18:43 -0.43024 10.01659 2462 ft 167 kts 146°
2026-04-13 18:43 -0.43978 10.02318 2462 ft 165 kts 146°
2026-04-13 18:43 -0.44914 10.02965 2463 ft 163 kts 146°
2026-04-13 18:44 -0.45842 10.03606 2463 ft 162 kts 146°
2026-04-13 18:44 -0.46721 10.04300 2464 ft 162 kts 140°
2026-04-13 18:44 -0.47437 10.05156 2466 ft 162 kts 127°
2026-04-13 18:44 -0.48088 10.06068 2465 ft 161 kts 126°
2026-04-13 18:45 -0.48735 10.06980 2464 ft 161 kts 126°
2026-04-13 18:45 -0.49386 10.07897 2464 ft 161 kts 126°
2026-04-13 18:45 -0.50035 10.08809 2459 ft 162 kts 125°
2026-04-13 18:45 -0.50315 10.09186 2304 ft 172 kts 126°
2026-04-13 18:46 -0.50942 10.10024 2185 ft 175 kts 126°
2026-04-13 18:46 -0.51662 10.10985 2153 ft 172 kts 126°
2026-04-13 18:46 -0.52370 10.11930 2148 ft 169 kts 126°
2026-04-13 18:46 -0.53073 10.12869 2149 ft 170 kts 126°
2026-04-13 18:47 -0.53778 10.13809 2133 ft 171 kts 126°
2026-04-13 18:47 -0.54502 10.14777 1989 ft 177 kts 126°
2026-04-13 18:47 -0.55232 10.15777 1842 ft 181 kts 121°
2026-04-13 18:47 -0.55876 10.16862 1698 ft 183 kts 120°
2026-04-13 18:48 -0.56530 10.17964 1550 ft 185 kts 120°
2026-04-13 18:48 -0.57179 10.19055 1397 ft 182 kts 120°
2026-04-13 18:48 -0.57817 10.20129 1242 ft 177 kts 120°
2026-04-13 18:48 -0.58435 10.21173 1084 ft 171 kts 120°
2026-04-13 18:49 -0.59026 10.22171 1001 ft 162 kts 120°
2026-04-13 18:49 -0.59575 10.23097 1000 ft 146 kts 120°
2026-04-13 18:49 -0.60047 10.23892 998 ft 123 kts 120°
2026-04-13 18:49 -0.60456 10.24578 1010 ft 110 kts 120°
2026-04-13 18:50 -0.60839 10.25209 1035 ft 102 kts 123°
2026-04-13 18:50 -0.61293 10.25758 1018 ft 110 kts 131°
2026-04-13 18:50 -0.61817 10.26345 959 ft 114 kts 131°
2026-04-13 18:50 -0.62352 10.26934 877 ft 115 kts 130°
2026-04-13 18:51 -0.62868 10.27518 856 ft 109 kts 133°
2026-04-13 18:51 -0.63432 10.28002 845 ft 107 kts 147°
2026-04-13 18:51 -0.64115 10.28288 796 ft 109 kts 169°
2026-04-13 18:51 -0.64856 10.28313 788 ft 102 kts 186°
2026-04-13 18:52 -0.65522 10.28201 813 ft 97 kts 192°
2026-04-13 18:52 -0.66163 10.28034 806 ft 96 kts 197°
2026-04-13 18:52 -0.66815 10.27842 746 ft 100 kts 201°
2026-04-13 18:52 -0.67461 10.27542 638 ft 106 kts 207°
2026-04-13 18:53 -0.68084 10.27140 484 ft 108 kts 220°
2026-04-13 18:53 -0.68579 10.26583 332 ft 107 kts 233°
2026-04-13 18:53 -0.69002 10.25999 266 ft 102 kts 234°
2026-04-13 18:53 -0.69443 10.25448 172 ft 102 kts 227°
2026-04-13 18:54 -0.69948 10.24980 101 ft 95 kts 221°
2026-04-13 18:54 -0.70407 10.24560 92 ft 86 kts 220°
2026-04-13 18:54 -0.70835 10.24214 97 ft 65 kts 212°
2026-04-13 18:54 -0.71065 10.24023 93 ft 19 kts 215°
2026-04-13 18:55 -0.71077 10.24015 93 ft 0 kts 212°
2026-04-13 18:59 -0.71094 10.23992 93 ft 15 kts 244°
2026-04-13 18:59 -0.71128 10.23933 93 ft 7 kts 250°
2026-04-13 19:00 -0.71110 10.23928 93 ft 6 kts 39°
2026-04-13 19:00 -0.71107 10.23931 93 ft 1 kts 41°
2026-04-13 19:00 -0.70942 10.24079 93 ft 75 kts 42°
2026-04-13 19:00 -0.70451 10.24518 259 ft 103 kts 42°
2026-04-13 19:01 -0.69786 10.24860 554 ft 120 kts 12°
2026-04-13 19:01 -0.68932 10.24834 806 ft 128 kts 342°
2026-04-13 19:01 -0.68180 10.24334 941 ft 140 kts 311°
2026-04-13 19:01 -0.67715 10.23431 946 ft 154 kts 281°
2026-04-13 19:02 -0.67699 10.22345 996 ft 161 kts 267°
2026-04-13 19:02 -0.67754 10.21203 996 ft 169 kts 267°
2026-04-13 19:02 -0.67813 10.20017 994 ft 174 kts 267°
2026-04-13 19:02 -0.67874 10.18795 993 ft 177 kts 267°
2026-04-13 19:03 -0.67935 10.17564 992 ft 179 kts 267°
2026-04-13 19:03 -0.67997 10.16320 992 ft 180 kts 267°
2026-04-13 19:03 -0.68059 10.15068 991 ft 181 kts 267°
2026-04-13 19:03 -0.68122 10.13812 991 ft 182 kts 267°
2026-04-13 19:04 -0.68185 10.12553 991 ft 182 kts 267°
2026-04-13 19:04 -0.68203 10.12192 991 ft 182 kts 267°
2026-04-13 19:04 -0.68258 10.10943 992 ft 180 kts 267°
2026-04-13 19:04 -0.68308 10.09702 991 ft 179 kts 267°
2026-04-13 19:05 -0.68358 10.08472 990 ft 177 kts 267°
2026-04-13 19:05 -0.68408 10.07249 990 ft 176 kts 267°
2026-04-13 19:05 -0.68456 10.06033 990 ft 176 kts 267°
2026-04-13 19:05 -0.68505 10.04820 990 ft 175 kts 267°
2026-04-13 19:06 -0.68554 10.03609 991 ft 175 kts 267°
2026-04-13 19:06 -0.68603 10.02391 990 ft 175 kts 267°
2026-04-13 19:06 -0.68652 10.01184 992 ft 174 kts 267°
2026-04-13 19:06 -0.68701 9.99977 989 ft 174 kts 267°
2026-04-13 19:07 -0.68750 9.98771 991 ft 174 kts 267°
2026-04-13 19:07 -0.68799 9.97564 990 ft 174 kts 267°
2026-04-13 19:07 -0.68849 9.96356 991 ft 174 kts 267°
2026-04-13 19:07 -0.68898 9.95149 990 ft 174 kts 267°
2026-04-13 19:08 -0.68948 9.93933 990 ft 174 kts 267°
2026-04-13 19:08 -0.68997 9.92727 991 ft 174 kts 267°
2026-04-13 19:08 -0.69046 9.91521 990 ft 174 kts 267°
2026-04-13 19:08 -0.69096 9.90315 991 ft 174 kts 267°
2026-04-13 19:09 -0.69146 9.89110 991 ft 174 kts 267°
2026-04-13 19:09 -0.69195 9.87903 990 ft 174 kts 267°
2026-04-13 19:09 -0.69245 9.86695 990 ft 174 kts 267°
2026-04-13 19:09 -0.69295 9.85481 990 ft 174 kts 267°
2026-04-13 19:10 -0.69345 9.84275 991 ft 174 kts 267°
2026-04-13 19:10 -0.69396 9.83069 990 ft 174 kts 267°
2026-04-13 19:10 -0.69446 9.81864 992 ft 174 kts 267°
2026-04-13 19:10 -0.69496 9.80657 992 ft 174 kts 267°
2026-04-13 19:11 -0.69546 9.79451 990 ft 174 kts 267°
2026-04-13 19:11 -0.69597 9.78244 990 ft 174 kts 267°
2026-04-13 19:11 -0.69647 9.77029 992 ft 174 kts 267°
2026-04-13 19:11 -0.69698 9.75825 992 ft 174 kts 267°
2026-04-13 19:12 -0.69749 9.74618 991 ft 174 kts 267°
2026-04-13 19:12 -0.69799 9.73411 991 ft 174 kts 267°
2026-04-13 19:12 -0.69850 9.72204 988 ft 174 kts 267°
2026-04-13 19:12 -0.69901 9.70997 990 ft 174 kts 267°
2026-04-13 19:13 -0.69952 9.69792 990 ft 174 kts 267°
2026-04-13 19:13 -0.70004 9.68577 991 ft 174 kts 267°
2026-04-13 19:13 -0.70055 9.67371 991 ft 174 kts 267°
2026-04-13 19:13 -0.70106 9.66164 990 ft 174 kts 267°
2026-04-13 19:14 -0.70157 9.64957 990 ft 174 kts 267°
2026-04-13 19:14 -0.70209 9.63751 990 ft 174 kts 267°
2026-04-13 19:14 -0.70260 9.62543 989 ft 174 kts 267°
2026-04-13 19:14 -0.70312 9.61338 988 ft 174 kts 267°
2026-04-13 19:15 -0.70328 9.60123 993 ft 174 kts 269°
2026-04-13 19:15 -0.70336 9.58917 995 ft 174 kts 269°
2026-04-13 19:15 -0.70343 9.57708 988 ft 174 kts 269°
2026-04-13 19:15 -0.70350 9.56500 989 ft 175 kts 269°
2026-04-13 19:16 -0.70358 9.55292 988 ft 174 kts 269°
2026-04-13 19:16 -0.70362 9.54086 994 ft 174 kts 270°
2026-04-13 19:16 -0.70347 9.52880 995 ft 175 kts 270°
2026-04-13 19:16 -0.70332 9.51660 991 ft 175 kts 270°
2026-04-13 19:17 -0.70288 9.50452 992 ft 175 kts 272°
2026-04-13 19:17 -0.70232 9.49242 988 ft 175 kts 272°
2026-04-13 19:17 -0.70174 9.48034 995 ft 174 kts 272°
2026-04-13 19:17 -0.70116 9.46826 993 ft 175 kts 272°
2026-04-13 19:18 -0.70058 9.45617 985 ft 175 kts 272°
2026-04-13 19:18 -0.70000 9.44410 988 ft 174 kts 272°
2026-04-13 19:18 -0.69941 9.43194 994 ft 174 kts 272°
2026-04-13 19:18 -0.69883 9.41987 991 ft 175 kts 272°
2026-04-13 19:19 -0.69825 9.40777 993 ft 175 kts 272°
2026-04-13 19:19 -0.69768 9.39569 986 ft 175 kts 272°
2026-04-13 19:19 -0.69709 9.38362 1080 ft 170 kts 272°
2026-04-13 19:19 -0.69691 9.38044 1202 ft 164 kts 272°
2026-04-13 19:20 -0.69628 9.36902 1174 ft 175 kts 272°
2026-04-13 19:20 -0.69563 9.35639 1022 ft 185 kts 272°
2026-04-13 19:20 -0.69495 9.34356 985 ft 186 kts 272°
2026-04-13 19:20 -0.69423 9.33065 963 ft 187 kts 272°
2026-04-13 19:21 -0.69350 9.31776 944 ft 187 kts 272°
2026-04-13 19:21 -0.69273 9.30485 923 ft 187 kts 272°
2026-04-13 19:21 -0.69195 9.29196 905 ft 186 kts 272°
2026-04-13 19:21 -0.69114 9.27909 886 ft 186 kts 272°
2026-04-13 19:22 -0.69032 9.26616 869 ft 186 kts 272°
2026-04-13 19:22 -0.68948 9.25332 850 ft 186 kts 272°
2026-04-13 19:22 -0.68864 9.24051 830 ft 185 kts 272°
2026-04-13 19:22 -0.68779 9.22773 811 ft 185 kts 272°
2026-04-13 19:23 -0.68734 9.22100 801 ft 184 kts 272°
2026-04-13 19:23 -0.68650 9.20862 939 ft 176 kts 272°
2026-04-13 19:23 -0.68567 9.19644 960 ft 177 kts 272°
2026-04-13 19:23 -0.68485 9.18406 940 ft 179 kts 272°
2026-04-13 19:24 -0.68404 9.17169 922 ft 179 kts 272°
2026-04-13 19:24 -0.68324 9.15929 904 ft 180 kts 272°
2026-04-13 19:24 -0.68249 9.14688 888 ft 180 kts 272°
2026-04-13 19:24 -0.68179 9.13447 866 ft 179 kts 272°
2026-04-13 19:25 -0.68116 9.12210 848 ft 179 kts 272°
2026-04-13 19:25 -0.68057 9.10974 838 ft 178 kts 272°
2026-04-13 19:25 -0.67998 9.09737 835 ft 177 kts 272°
2026-04-13 19:25 -0.67940 9.08513 835 ft 176 kts 272°
2026-04-13 19:26 -0.67881 9.07296 833 ft 176 kts 272°
2026-04-13 19:26 -0.67822 9.06091 832 ft 171 kts 272°
2026-04-13 19:26 -0.67766 9.04932 830 ft 164 kts 272°
2026-04-13 19:26 -0.67711 9.03821 831 ft 158 kts 272°
2026-04-13 19:27 -0.67657 9.02738 833 ft 155 kts 272°
2026-04-13 19:27 -0.67603 9.01670 832 ft 152 kts 272°
2026-04-13 19:27 -0.67550 9.00631 832 ft 149 kts 272°
2026-04-13 19:27 -0.67453 8.99611 834 ft 147 kts 275°
2026-04-13 19:28 -0.67345 8.98604 834 ft 146 kts 275°
2026-04-13 19:28 -0.67238 8.97609 826 ft 138 kts 275°
2026-04-13 19:28 -0.67139 8.96725 821 ft 120 kts 275°
2026-04-13 19:28 -0.67048 8.95930 832 ft 113 kts 275°
2026-04-13 19:29 -0.66928 8.95162 836 ft 111 kts 282°
2026-04-13 19:29 -0.66704 8.94430 836 ft 110 kts 285°
2026-04-13 19:29 -0.66417 8.93720 837 ft 112 kts 292°
2026-04-13 19:29 -0.66090 8.93012 836 ft 114 kts 292°
2026-04-13 19:30 -0.65757 8.92294 835 ft 115 kts 292°
2026-04-13 19:30 -0.65422 8.91572 835 ft 115 kts 292°
2026-04-13 19:30 -0.65087 8.90849 835 ft 115 kts 292°
2026-04-13 19:30 -0.64750 8.90121 835 ft 115 kts 292°
2026-04-13 19:31 -0.64414 8.89398 835 ft 115 kts 292°
2026-04-13 19:31 -0.64079 8.88675 835 ft 115 kts 292°
2026-04-13 19:31 -0.63743 8.87952 835 ft 115 kts 292°
2026-04-13 19:31 -0.63528 8.87489 835 ft 115 kts 292°
2026-04-13 19:32 -0.63205 8.86797 959 ft 107 kts 292°
2026-04-13 19:32 -0.62887 8.86117 985 ft 110 kts 292°
2026-04-13 19:32 -0.62560 8.85413 990 ft 112 kts 292°
2026-04-13 19:32 -0.62230 8.84703 990 ft 114 kts 292°
2026-04-13 19:33 -0.61968 8.83963 990 ft 113 kts 281°
2026-04-13 19:33 -0.61823 8.83193 991 ft 113 kts 278°
2026-04-13 19:33 -0.61804 8.82420 993 ft 112 kts 258°
2026-04-13 19:34 -0.62218 8.80918 991 ft 113 kts 254°
2026-04-13 19:34 -0.62539 8.80209 992 ft 113 kts 229°
2026-04-13 19:34 -0.63177 8.79744 994 ft 115 kts 216°
2026-04-13 19:34 -0.63848 8.79322 993 ft 115 kts 212°
2026-04-13 19:35 -0.64532 8.78948 1038 ft 107 kts 212°
2026-04-13 19:35 -0.65174 8.78582 1073 ft 108 kts 211°
2026-04-13 19:35 -0.65792 8.78157 1087 ft 109 kts 211°
2026-04-13 19:35 -0.66397 8.77695 1042 ft 111 kts 215°
2026-04-13 19:36 -0.67010 8.77237 996 ft 107 kts 212°
2026-04-13 19:36 -0.67647 8.76882 927 ft 107 kts 206°
2026-04-13 19:36 -0.68306 8.76560 731 ft 105 kts 202°
2026-04-13 19:36 -0.68921 8.76298 606 ft 90 kts 199°
2026-04-13 19:37 -0.69490 8.76087 369 ft 88 kts 197°
2026-04-13 19:37 -0.70065 8.75878 194 ft 90 kts 200°
2026-04-13 19:37 -0.70639 8.75657 43 ft 85 kts 201°
2026-04-13 19:37 -0.71108 8.75465 20 ft 60 kts 200°
2026-04-13 19:38 -0.71446 8.75344 20 ft 45 kts 203°
2026-04-13 19:38 -0.71702 8.75227 20 ft 37 kts 203°
2026-04-13 19:38 -0.71900 8.75154 21 ft 19 kts 188°
2026-04-13 19:38 -0.71972 8.75241 21 ft 15 kts 111°
2026-04-13 19:39 -0.72026 8.75306 22 ft 11 kts 168°
2026-04-13 19:39 -0.72073 8.75283 22 ft 5 kts 271°
2026-04-13 19:39 -0.72072 8.75279 22 ft 0 kts 297°